TimeCST,TemperatureF,Dew PointF,Humidity,Sea Level PressureIn,VisibilityMPH,Wind Direction,Wind SpeedMPH,Gust SpeedMPH,PrecipitationIn,Events,Conditions,WindDirDegrees,DateUTC
12:15 AM,23.0,14.0,68,30.47,10.0,NNW,13.8,20.7,N/A,Snow,Light Snow,330,2013-11-23 06:15:00
12:35 AM,21.2,15.8,80,30.48,10.0,NNW,9.2,-,N/A,Snow,Light Snow,340,2013-11-23 06:35:00
12:55 AM,21.2,12.2,68,30.49,10.0,NNW,17.3,26.5,N/A,Snow,Light Snow,330,2013-11-23 06:55:00
1:15 AM,19.4,8.6,63,30.49,10.0,NNW,15.0,26.5,N/A,Snow,Light Snow,330,2013-11-23 07:15:00
1:35 AM,19.4,8.6,63,30.50,10.0,NW,18.4,24.2,N/A,Snow,Light Snow,320,2013-11-23 07:35:00
1:55 AM,19.4,8.6,63,30.51,10.0,NNW,13.8,21.9,N/A,Snow,Light Snow,330,2013-11-23 07:55:00
2:15 AM,17.6,8.6,68,30.52,-9999.0,NW,24.2,29.9,N/A,Snow,Light Snow,320,2013-11-23 08:15:00
2:35 AM,17.6,8.6,68,30.53,10.0,NNW,19.6,26.5,N/A,Snow,Light Snow,330,2013-11-23 08:35:00
2:55 AM,15.8,8.6,73,30.53,10.0,NNW,18.4,24.2,N/A,Snow,Light Snow,330,2013-11-23 08:55:00
3:15 AM,15.8,6.8,68,30.53,10.0,NNW,21.9,28.8,N/A,Snow,Light Snow,340,2013-11-23 09:15:00
3:35 AM,14.0,6.8,73,30.55,10.0,NNW,16.1,24.2,N/A,Snow,Light Snow,340,2013-11-23 09:35:00
3:55 AM,14.0,5.0,67,30.56,10.0,NNW,17.3,24.2,N/A,Snow,Light Snow,330,2013-11-23 09:55:00
4:15 AM,14.0,5.0,67,30.56,10.0,NNW,15.0,21.9,N/A,Snow,Light Snow,330,2013-11-23 10:15:00
4:35 AM,12.2,3.2,67,30.57,10.0,NNW,16.1,-,N/A,Snow,Light Snow,340,2013-11-23 10:35:00
4:55 AM,12.2,1.4,62,30.58,10.0,NNW,19.6,-,N/A,,Mostly Cloudy,340,2013-11-23 10:55:00
5:15 AM,12.2,1.4,62,30.59,10.0,NNW,16.1,24.2,N/A,Snow,Light Snow,340,2013-11-23 11:15:00
5:35 AM,10.4,1.4,67,30.60,10.0,NNW,20.7,-,N/A,Snow,Light Snow,340,2013-11-23 11:35:00
5:55 AM,10.4,-0.4,62,30.62,10.0,NNW,15.0,-,N/A,,Clear,340,2013-11-23 11:55:00
6:15 AM,10.4,-0.4,62,30.63,10.0,NNW,15.0,20.7,N/A,Snow,Light Snow,340,2013-11-23 12:15:00
6:35 AM,10.4,-0.4,62,30.63,10.0,NNW,17.3,-,N/A,Snow,Light Snow,340,2013-11-23 12:35:00
6:55 AM,10.4,1.4,67,30.64,10.0,NNW,15.0,21.9,N/A,Snow,Light Snow,340,2013-11-23 12:55:00
7:15 AM,10.4,1.4,67,30.65,10.0,NNW,17.3,-,N/A,Snow,Light Snow,340,2013-11-23 13:15:00
7:35 AM,10.4,1.4,67,30.67,10.0,NNW,11.5,20.7,N/A,Snow,Light Snow,340,2013-11-23 13:35:00
7:55 AM,10.4,1.4,67,30.68,10.0,NNW,13.8,23.0,N/A,Snow,Light Snow,340,2013-11-23 13:55:00
8:15 AM,10.4,1.4,67,30.69,10.0,NNW,12.7,20.7,N/A,Snow,Light Snow,340,2013-11-23 14:15:00
8:35 AM,10.4,1.4,67,30.70,10.0,NNW,17.3,-,N/A,Snow,Light Snow,340,2013-11-23 14:35:00
8:55 AM,10.4,1.4,67,30.69,10.0,NNW,21.9,-,N/A,Snow,Light Snow,340,2013-11-23 14:55:00
9:15 AM,12.2,1.4,62,30.71,10.0,NNW,20.7,-,N/A,Snow,Light Snow,340,2013-11-23 15:15:00
9:35 AM,12.2,1.4,62,30.72,10.0,NNW,13.8,-,N/A,Snow,Light Snow,340,2013-11-23 15:35:00
9:55 AM,12.2,3.2,67,30.71,10.0,NNW,13.8,21.9,N/A,Snow,Light Snow,340,2013-11-23 15:55:00
10:15 AM,12.2,1.4,62,30.72,10.0,NNW,17.3,-,N/A,Snow,Light Snow,340,2013-11-23 16:15:00
10:35 AM,12.2,1.4,62,30.72,10.0,NNW,17.3,24.2,N/A,Snow,Light Snow,340,2013-11-23 16:35:00
10:55 AM,14.0,1.4,57,30.72,10.0,NNW,16.1,23.0,N/A,Snow,Light Snow,330,2013-11-23 16:55:00
11:15 AM,14.0,1.4,57,30.72,10.0,NW,19.6,-,N/A,Snow,Light Snow,320,2013-11-23 17:15:00
11:35 AM,14.0,1.4,57,30.71,10.0,NNW,13.8,23.0,N/A,Snow,Light Snow,330,2013-11-23 17:35:00
11:55 AM,14.0,1.4,57,30.70,10.0,NNW,15.0,21.9,N/A,Snow,Light Snow,340,2013-11-23 17:55:00
12:15 PM,15.8,1.4,53,30.70,10.0,NNW,12.7,19.6,N/A,Snow,Light Snow,340,2013-11-23 18:15:00
12:35 PM,15.8,1.4,53,30.70,10.0,North,15.0,-,N/A,Snow,Light Snow,10,2013-11-23 18:35:00
12:55 PM,15.8,1.4,53,30.70,10.0,NNW,16.1,23.0,N/A,Snow,Light Snow,340,2013-11-23 18:55:00
1:15 PM,15.8,1.4,53,30.71,10.0,NNW,13.8,23.0,N/A,Snow,Light Snow,340,2013-11-23 19:15:00
1:35 PM,15.8,1.4,53,30.71,10.0,NNW,12.7,23.0,N/A,Snow,Light Snow,340,2013-11-23 19:35:00
1:55 PM,15.8,1.4,53,30.71,10.0,NNW,16.1,-,N/A,Snow,Light Snow,330,2013-11-23 19:55:00
2:15 PM,17.6,1.4,49,30.72,10.0,NNW,13.8,-,N/A,Snow,Light Snow,330,2013-11-23 20:15:00
2:35 PM,17.6,1.4,49,30.72,10.0,NNW,15.0,-,N/A,Snow,Light Snow,340,2013-11-23 20:35:00
2:55 PM,17.6,1.4,49,30.71,10.0,NNW,15.0,20.7,N/A,Snow,Light Snow,330,2013-11-23 20:55:00
3:15 PM,17.6,1.4,49,30.71,10.0,NNW,13.8,-,N/A,Snow,Light Snow,330,2013-11-23 21:15:00
3:35 PM,15.8,1.4,53,30.71,10.0,North,12.7,-,N/A,Snow,Light Snow,350,2013-11-23 21:35:00
3:55 PM,15.8,1.4,53,30.71,10.0,NW,13.8,-,N/A,Snow,Light Snow,320,2013-11-23 21:55:00
4:15 PM,15.8,1.4,53,30.71,10.0,NNW,13.8,-,N/A,Snow,Light Snow,330,2013-11-23 22:15:00
4:35 PM,14.0,1.4,57,30.72,10.0,NW,9.2,17.3,N/A,,Clear,320,2013-11-23 22:35:00
4:55 PM,14.0,1.4,57,30.72,10.0,NNW,10.4,-,N/A,,Clear,330,2013-11-23 22:55:00
5:15 PM,14.0,1.4,57,30.72,10.0,NW,9.2,-,N/A,,Clear,320,2013-11-23 23:15:00
5:35 PM,14.0,1.4,57,30.72,10.0,Variable,5.8,-,N/A,,Clear,0,2013-11-23 23:35:00
5:55 PM,12.2,1.4,62,30.72,10.0,WNW,4.6,-,N/A,,Clear,300,2013-11-23 23:55:00
6:15 PM,12.2,1.4,62,30.72,10.0,WNW,4.6,-,N/A,,Clear,300,2013-11-24 00:15:00
6:35 PM,12.2,1.4,62,30.73,10.0,Variable,4.6,-,N/A,,Clear,0,2013-11-24 00:35:00
6:55 PM,10.4,1.4,67,30.74,10.0,Variable,5.8,-,N/A,,Clear,0,2013-11-24 00:55:00
7:15 PM,10.4,1.4,67,30.72,10.0,NNW,5.8,-,N/A,,Clear,330,2013-11-24 01:15:00
7:35 PM,10.4,1.4,67,30.71,10.0,North,8.1,-,N/A,,Clear,350,2013-11-24 01:35:00
7:55 PM,10.4,1.4,67,30.71,10.0,NNW,9.2,-,N/A,,Clear,340,2013-11-24 01:55:00
8:15 PM,12.2,1.4,62,30.71,10.0,NNW,6.9,-,N/A,,Clear,340,2013-11-24 02:15:00
8:35 PM,12.2,1.4,62,30.71,10.0,NNW,9.2,-,N/A,,Clear,340,2013-11-24 02:35:00
8:55 PM,10.4,1.4,67,30.69,10.0,North,6.9,-,N/A,,Clear,350,2013-11-24 02:55:00
9:15 PM,10.4,1.4,67,30.70,10.0,NNW,6.9,-,N/A,,Clear,330,2013-11-24 03:15:00
9:35 PM,10.4,1.4,67,30.70,10.0,WNW,3.5,-,N/A,,Clear,300,2013-11-24 03:35:00
9:55 PM,10.4,1.4,67,30.70,10.0,West,5.8,-,N/A,,Clear,270,2013-11-24 03:55:00
10:15 PM,8.6,1.4,73,30.70,10.0,WSW,3.5,-,N/A,,Clear,240,2013-11-24 04:15:00
10:35 PM,8.6,-0.4,67,30.70,10.0,Calm,Calm,-,N/A,,Clear,0,2013-11-24 04:35:00
10:55 PM,8.6,-0.4,67,30.70,10.0,WSW,4.6,-,N/A,,Clear,240,2013-11-24 04:55:00
11:15 PM,8.6,-0.4,67,30.69,10.0,Calm,Calm,-,N/A,,Clear,0,2013-11-24 05:15:00
11:35 PM,8.6,1.4,73,30.69,10.0,WNW,5.8,-,N/A,,Clear,290,2013-11-24 05:35:00
11:55 PM,6.8,-0.4,72,30.68,10.0,West,5.8,-,N/A,,Clear,280,2013-11-24 05:55:00